Plymouth, NH

11:41 PM EDT on April 30, 2017 (GMT -0400)
Plymouth

Weather History for K1P1 - April, 2013

Change the Weather History Date:

Saturday, April 20, 2013

  Actual Average (KLCI) Record (KLCI)
Temperature  
Mean Temperature 50 °F -  
Max Temperature 62 °F 56 °F 80 °F (2005)
Min Temperature 37 °F 34 °F 23 °F (2001)
Degree Days  
Heating Degree Days 15    
Moisture  
Dew Point 31 °F    
Average Humidity 55    
Maximum Humidity 84    
Minimum Humidity 32    
Precipitation  
Precipitation 0.04 in - - ()
Sea Level Pressure  
Sea Level Pressure 29.84 in    
Wind  
Wind Speed 10 mph (West)    
Max Wind Speed 20 mph    
Max Gust Speed 31 mph    
Visibility 10 miles    
Events Rain    
Averages and records for this station are not official NWS values.
T = Trace of Precipitation, MM = Missing Value Source: NWS Daily Summary

Daily Weather History Graph

Daily Weather History Graph

Search for Another Location

Airport or City:

Trip Planner

Search our weather history database for the weather conditions in past years. The results will help you decide how hot, cold, wet, or windy it might be!

Date:

Astronomy

Apr. 20, 2013 Rise Set
Actual Time 5:55 AM EDT 7:36 PM EDT
Civil Twilight 5:25 AM EDT 8:07 PM EDT
Nautical Twilight 4:48 AM EDT 8:44 PM EDT
Astronomical Twilight 4:08 AM EDT 9:24 PM EDT
Moon 2:07 PM EDT (4/20) 2:54 AM EDT (4/20)
Length of Visible Light 14h 42m
Length of Day
13h 41m
Waxing Gibbous, 71% of the Moon is Illuminated
Apr 20
Waxing Gibbous
Apr 25
Full
May 2
Last Quarter
May 9
New
May 18
First Quarter

Hourly Weather History & Observations

Time (EDT) Temp. Windchill Dew Point Humidity Pressure Visibility Wind Dir Wind Speed Gust Speed Precip Events Conditions
12:15 AM 62.1 °F - 54.7 °F 77% 29.61 in 10.0 mi West 8.1 mph - N/A Rain Light Rain
12:35 AM 59.9 °F - 54.5 °F 82% 29.63 in 10.0 mi West 9.2 mph - N/A Rain Light Rain
12:55 AM 57.2 °F - 52.0 °F 83% 29.62 in 10.0 mi West 9.2 mph - N/A   Drizzle
1:15 AM 56.8 °F - 50.9 °F 80% 29.63 in 10.0 mi West 11.5 mph 16.1 mph N/A   Overcast
1:35 AM 55.6 °F - 50.0 °F 81% 29.65 in 10.0 mi West 11.5 mph 16.1 mph N/A Rain Rain
1:55 AM 53.6 °F - 46.9 °F 78% 29.65 in 10.0 mi West 11.5 mph 19.6 mph 0.01 in Rain Light Rain
2:35 AM 50.2 °F - 42.8 °F 76% 29.64 in 10.0 mi West 12.7 mph - N/A Rain Rain
2:55 AM 49.5 °F - 42.3 °F 76% 29.64 in 10.0 mi NW 3.5 mph - N/A Rain Light Rain
3:15 AM 48.4 °F - 39.6 °F 72% 29.66 in 10.0 mi WNW 6.9 mph - N/A Rain Light Rain
3:35 AM 46.6 °F - 37.8 °F 71% 29.66 in 10.0 mi West 9.2 mph 19.6 mph N/A Rain Light Rain
3:55 AM 45.5 °F 42.5 °F 38.3 °F 76% 29.66 in 10.0 mi WNW 5.8 mph - N/A Rain Light Rain
4:15 AM 44.6 °F 40.2 °F 39.0 °F 81% 29.65 in 10.0 mi NW 8.1 mph - N/A Rain Light Rain
4:35 AM 44.1 °F 40.8 °F 39.2 °F 83% 29.66 in 10.0 mi WNW 5.8 mph - 0.01 in Rain Rain
4:55 AM 43.7 °F 39.1 °F 39.0 °F 84% 29.67 in 10.0 mi West 8.1 mph - 0.02 in Rain Rain
5:15 AM 43.2 °F 37.0 °F 38.1 °F 82% 29.69 in 10.0 mi West 11.5 mph 19.6 mph N/A Rain Light Rain
5:35 AM 42.8 °F 38.6 °F 37.6 °F 82% 29.68 in 10.0 mi WNW 6.9 mph - 0.01 in Rain Light Rain
5:55 AM 42.8 °F 39.3 °F 37.8 °F 82% 29.67 in 10.0 mi West 5.8 mph - 0.01 in Rain Rain
6:15 AM 42.4 °F 37.0 °F 37.6 °F 83% 29.69 in 10.0 mi West 9.2 mph 18.4 mph N/A   Light Drizzle
6:35 AM 42.1 °F 36.6 °F 37.4 °F 83% 29.70 in 10.0 mi West 9.2 mph - N/A Rain Light Rain
6:55 AM 42.1 °F 35.7 °F 37.4 °F 83% 29.73 in 10.0 mi West 11.5 mph 17.3 mph N/A   Overcast
7:15 AM 42.4 °F 37.0 °F 37.2 °F 82% 29.72 in 10.0 mi West 9.2 mph 17.3 mph N/A   Overcast
7:35 AM 42.8 °F 37.0 °F 37.0 °F 80% 29.73 in 10.0 mi West 10.4 mph 16.1 mph N/A   Overcast
7:55 AM 43.2 °F 37.9 °F 36.0 °F 76% 29.74 in 10.0 mi West 9.2 mph 16.1 mph N/A   Overcast
8:15 AM 43.7 °F 39.1 °F 36.1 °F 75% 29.75 in 10.0 mi West 8.1 mph - N/A   Overcast
8:35 AM 44.8 °F 40.4 °F 35.4 °F 70% 29.75 in 10.0 mi West 8.1 mph - N/A   Overcast
8:55 AM 45.5 °F 41.8 °F 35.1 °F 67% 29.76 in 10.0 mi WNW 6.9 mph - N/A   Overcast
9:15 AM 45.9 °F 41.2 °F 32.9 °F 61% 29.76 in 10.0 mi West 9.2 mph 16.1 mph N/A   Mostly Cloudy
9:35 AM 46.4 °F 41.9 °F 32.2 °F 58% 29.76 in 10.0 mi West 9.2 mph 20.7 mph N/A   Overcast
9:55 AM 46.6 °F - 32.4 °F 58% 29.76 in 10.0 mi West 9.2 mph 17.3 mph N/A   Scattered Clouds
10:15 AM 46.9 °F - 31.6 °F 55% 29.77 in 10.0 mi West 11.5 mph 24.2 mph N/A   Mostly Cloudy
10:35 AM 47.8 °F - 31.8 °F 54% 29.77 in 10.0 mi West 10.4 mph 23.0 mph N/A   Mostly Cloudy
10:55 AM 48.7 °F - 29.1 °F 47% 29.78 in 10.0 mi West 19.6 mph 27.6 mph N/A   Scattered Clouds
11:15 AM 49.1 °F - 27.7 °F 44% 29.78 in 10.0 mi West 15.0 mph 27.6 mph N/A   Clear
11:35 AM 49.3 °F - 28.0 °F 44% 29.79 in 10.0 mi WNW 13.8 mph 21.9 mph N/A   Scattered Clouds
11:55 AM 49.8 °F - 28.2 °F 43% 29.80 in 10.0 mi West 11.5 mph 21.9 mph N/A   Mostly Cloudy
12:15 PM 50.0 °F - 26.6 °F 40% 29.82 in 10.0 mi West 15.0 mph 29.9 mph N/A   Mostly Cloudy
12:35 PM 50.0 °F - 26.8 °F 41% 29.82 in 10.0 mi West 13.8 mph 24.2 mph N/A   Scattered Clouds
12:55 PM 50.4 °F - 27.7 °F 42% 29.82 in 10.0 mi West 9.2 mph 20.7 mph N/A   Mostly Cloudy
1:15 PM 50.9 °F - 27.5 °F 40% 29.83 in 10.0 mi West 10.4 mph 23.0 mph N/A   Mostly Cloudy
1:35 PM 50.0 °F - 26.1 °F 39% 29.84 in 10.0 mi West 11.5 mph 24.2 mph N/A   Overcast
1:55 PM 49.5 °F - 27.0 °F 42% 29.84 in 10.0 mi WSW 10.4 mph 17.3 mph N/A   Overcast
2:15 PM 49.8 °F - 28.6 °F 44% 29.84 in 10.0 mi WNW 9.2 mph - N/A   Overcast
2:35 PM 50.0 °F - 28.8 °F 44% 29.85 in 10.0 mi WSW 12.7 mph 19.6 mph N/A   Overcast
2:55 PM 50.4 °F - 29.1 °F 44% 29.86 in 10.0 mi West 10.4 mph - N/A   Overcast
3:15 PM 50.2 °F - 27.3 °F 41% 29.86 in 10.0 mi WSW 10.4 mph 23.0 mph N/A   Overcast
3:35 PM 50.5 °F - 26.4 °F 39% 29.86 in 10.0 mi WSW 6.9 mph 16.1 mph N/A   Overcast
3:55 PM 51.8 °F - 26.1 °F 37% 29.87 in 10.0 mi WSW 6.9 mph 18.4 mph N/A   Mostly Cloudy
4:15 PM 51.3 °F - 25.9 °F 37% 29.88 in 10.0 mi West 11.5 mph 21.9 mph N/A   Mostly Cloudy
4:35 PM 51.1 °F - 24.4 °F 35% 29.89 in 10.0 mi WSW 16.1 mph 24.2 mph N/A   Overcast
4:55 PM 51.3 °F - 24.4 °F 35% 29.90 in 10.0 mi WSW 6.9 mph 26.5 mph N/A   Overcast
5:15 PM 52.3 °F - 23.4 °F 32% 29.92 in 10.0 mi West 10.4 mph 20.7 mph N/A   Overcast
5:35 PM 50.2 °F - 22.3 °F 34% 29.94 in 10.0 mi West 15.0 mph 31.1 mph N/A   Overcast
5:55 PM 49.1 °F - 22.8 °F 36% 29.96 in 10.0 mi West 13.8 mph 29.9 mph N/A   Mostly Cloudy
6:15 PM 48.4 °F - 21.6 °F 35% 29.96 in 10.0 mi West 11.5 mph 19.6 mph N/A   Overcast
6:35 PM 48.6 °F - 19.4 °F 32% 29.98 in 10.0 mi West 15.0 mph 24.2 mph N/A   Overcast
6:55 PM 47.3 °F - 19.4 °F 33% 29.99 in 10.0 mi WNW 16.1 mph 23.0 mph N/A   Overcast
7:15 PM 46.9 °F - 19.4 °F 34% 30.00 in 10.0 mi West 13.8 mph 23.0 mph N/A   Mostly Cloudy
7:35 PM 46.4 °F 39.5 °F 20.5 °F 36% 30.02 in 10.0 mi West 17.3 mph 28.8 mph N/A   Mostly Cloudy
7:55 PM 45.0 °F 38.2 °F 20.5 °F 38% 30.04 in 10.0 mi West 15.0 mph 23.0 mph N/A   Scattered Clouds
8:15 PM 44.2 °F 39.7 °F 19.9 °F 38% 30.06 in 10.0 mi West 8.1 mph 20.7 mph N/A   Scattered Clouds
8:35 PM 43.5 °F 38.3 °F 20.3 °F 40% 30.09 in 10.0 mi West 9.2 mph - N/A   Mostly Cloudy
8:55 PM 43.0 °F 36.4 °F 20.1 °F 40% 30.10 in 10.0 mi WSW 12.7 mph 20.7 mph N/A   Scattered Clouds
9:15 PM 42.4 °F 35.3 °F 19.8 °F 40% 30.12 in 10.0 mi West 13.8 mph 21.9 mph N/A   Scattered Clouds
9:35 PM 41.5 °F 35.9 °F 19.8 °F 42% 30.13 in 10.0 mi West 9.2 mph 17.3 mph N/A   Clear
9:55 PM 40.6 °F 34.8 °F 19.0 °F 42% 30.14 in 10.0 mi WNW 9.2 mph 17.3 mph N/A   Scattered Clouds
10:15 PM 40.1 °F 36.1 °F 19.0 °F 43% 30.16 in 10.0 mi West 5.8 mph - N/A   Mostly Cloudy
10:35 PM 39.9 °F 33.9 °F 18.1 °F 42% 30.16 in 10.0 mi WNW 9.2 mph 18.4 mph N/A   Mostly Cloudy
10:55 PM 39.2 °F 31.2 °F 19.4 °F 45% 30.17 in 10.0 mi WNW 13.8 mph 19.6 mph N/A   Overcast
11:15 PM 39.2 °F 30.8 °F 19.4 °F 45% 30.19 in 10.0 mi West 15.0 mph 25.3 mph N/A   Overcast
11:35 PM 38.5 °F 30.3 °F 19.4 °F 46% 30.20 in 10.0 mi West 13.8 mph 18.4 mph N/A   Mostly Cloudy
11:55 PM 37.6 °F 31.0 °F 19.2 °F 48% 30.20 in 10.0 mi West 9.2 mph 20.7 mph N/A   Scattered Clouds